QPF
0.02 0.01 0.01 0.01 0.01 0.01 0.02 0.02 0.02 0.02 0.01 0.01 0.02 0.02 0.02 0.01 0.01 0.01 0.01 0.01 0.01 0.02 0.02 0.02 0.03 0.02 0.02 0.02 0.02 0.02 0.03 0.01 0.01 0.01 0.01 0.02 0.02 0.02 0.01 0.01 0.01 0.01 0.02
0.01 0.01 0.01 0.02 0.01 0.02 0.03 0.03 0.02 0.02 0.01 0.02 0.02 0.02 0.02 0.01 0.01 0.01 0.01 0.01 0.01 0.02 0.02 0.03 0.03 0.02 0.02 0.02 0.02 0.02 0.02 0.01 0.01 0.00 0.00 0.01 0.02 0.02 0.02 0.02 0.01 0.02 0.02
0.02 0.02 0.02 0.02 0.02 0.02 0.03 0.03 0.02 0.01 0.01 0.02 0.02 0.01 0.02 0.01 0.01 0.01 0.01 0.01 0.02 0.02 0.03 0.03 0.03 0.03 0.03 0.02 0.02 0.02 0.01 0.01 0.01 0.00 0.00 0.00 0.01 0.03 0.03 0.02 0.02 0.02 0.01
0.02 0.01 0.02 0.03 0.03 0.03 0.03 0.02 0.01 0.01 0.01 0.01 0.02 0.02 0.01 0.02 0.02 0.02 0.02 0.02 0.02 0.03 0.03 0.04 0.04 0.04 0.03 0.02 0.02 0.02 0.01 0.01 0.00 0.00 0.00 0.00 0.01 0.04 0.04 0.03 0.02 0.02 0.01
0.02 0.02 0.02 0.02 0.02 0.02 0.02 0.01 0.01 0.01 0.01 0.01 0.01 0.01 0.02 0.02 0.02 0.03 0.02 0.02 0.02 0.02 0.02 0.04 0.04 0.05 0.03 0.02 0.02 0.02 0.02 0.01 0.00 0.00 0.01 0.01 0.02 0.06 0.05 0.03 0.03 0.02 0.01
0.02 0.02 0.03 0.02 0.02 0.02 0.02 0.01 0.01 0.01 0.01 0.01 0.01 0.01 0.02 0.02 0.02 0.02 0.02 0.02 0.01 0.01 0.02 0.03 0.04 0.04 0.03 0.03 0.03 0.03 0.02 0.01 0.00 0.01 0.01 0.02 0.02 0.05 0.05 0.04 0.03 0.02 0.02
0.02 0.02 0.03 0.04 0.03 0.03 0.02 0.01 0.01 0.01 0.01 0.01 0.01 0.01 0.02 0.02 0.02 0.02 0.02 0.01 0.01 0.01 0.02 0.02 0.03 0.04 0.04 0.04 0.04 0.04 0.02 0.01 0.00 0.01 0.01 0.01 0.02 0.04 0.04 0.03 0.03 0.02 0.02
0.03 0.03 0.03 0.04 0.04 0.03 0.02 0.02 0.02 0.02 0.01 0.01 0.01 0.01 0.02 0.02 0.02 0.02 0.02 0.01 0.01 0.02 0.05 0.03 0.02 0.02 0.03 0.04 0.04 0.06 0.05 0.01 0.01 0.01 0.01 0.01 0.02 0.03 0.02 0.01 0.02 0.02 0.02
0.03 0.03 0.03 0.03 0.03 0.03 0.04 0.03 0.02 0.02 0.02 0.02 0.02 0.01 0.01 0.02 0.02 0.02 0.01 0.01 0.01 0.02 0.05 0.05 0.03 0.02 0.02 0.02 0.03 0.04 0.04 0.02 0.01 0.01 0.01 0.01 0.03 0.05 0.04 0.02 0.02 0.02 0.02
0.02 0.03 0.04 0.04 0.03 0.02 0.02 0.03 0.02 0.01 0.02 0.03 0.03 0.02 0.02 0.02 0.02 0.03 0.01 0.01 0.01 0.02 0.02 0.03 0.03 0.02 0.01 0.01 0.02 0.03 0.04 0.03 0.02 0.01 0.01 0.01 0.03 0.07 0.05 0.03 0.02 0.02 0.02
0.02 0.03 0.04 0.05 0.05 0.03 0.03 0.03 0.02 0.01 0.01 0.01 0.02 0.02 0.02 0.02 0.02 0.02 0.01 0.01 0.01 0.01 0.01 0.01 0.02 0.01 0.01 0.01 0.01 0.03 0.04 0.04 0.03 0.02 0.01 0.01 0.03 0.05 0.04 0.03 0.02 0.03 0.03
0.01 0.02 0.02 0.04 0.05 0.05 0.04 0.04 0.04 0.02 0.01 0.01 0.00 0.01 0.01 0.01 0.01 0.02 0.02 0.01 0.00 0.00 0.01 0.01 0.01 0.02 0.01 0.00 0.01 0.02 0.02 0.03 0.03 0.03 0.02 0.02 0.03 0.03 0.03 0.03 0.03 0.03 0.03
0.01 0.02 0.01 0.02 0.03 0.04 0.04 0.05 0.06 0.04 0.03 0.01 0.01 0.00 0.00 0.00 0.01 0.02 0.02 0.02 0.01 0.01 0.01 0.01 0.01 0.01 0.00 0.00 0.00 0.00 0.01 0.02 0.02 0.02 0.01 0.01 0.02 0.02 0.02 0.02 0.03 0.04 0.03
0.02 0.02 0.02 0.02 0.02 0.03 0.04 0.04 0.04 0.03 0.03 0.02 0.02 0.01 0.01 0.01 0.01 0.01 0.01 0.02 0.02 0.01 0.00 0.00 0.00 0.00 0.00 0.00 0.00 0.01 0.01 0.02 0.02 0.02 0.02 0.02 0.02 0.02 0.02 0.03 0.04 0.04 0.04
0.03 0.03 0.03 0.03 0.03 0.02 0.03 0.03 0.03 0.03 0.03 0.02 0.02 0.02 0.02 0.01 0.01 0.01 0.02 0.02 0.03 0.02 0.02 0.01 0.00 0.00 0.00 0.01 0.01 0.01 0.01 0.01 0.02 0.02 0.02 0.03 0.02 0.02 0.02 0.03 0.04 0.04 0.04
0.03 0.04 0.04 0.04 0.04 0.03 0.02 0.02 0.03 0.03 0.02 0.01 0.01 0.02 0.02 0.02 0.02 0.02 0.03 0.04 0.04 0.04 0.03 0.03 0.02 0.01 0.01 0.02 0.02 0.02 0.01 0.01 0.02 0.03 0.02 0.03 0.03 0.02 0.03 0.04 0.04 0.05 0.05
0.03 0.04 0.05 0.06 0.05 0.05 0.04 0.03 0.02 0.02 0.02 0.02 0.01 0.01 0.02 0.02 0.02 0.03 0.05 0.05 0.06 0.06 0.05 0.05 0.04 0.03 0.03 0.03 0.03 0.02 0.02 0.02 0.02 0.03 0.03 0.03 0.02 0.02 0.02 0.03 0.04 0.05 0.06
0.03 0.04 0.06 0.06 0.06 0.05 0.06 0.05 0.04 0.03 0.03 0.02 0.02 0.01 0.02 0.02 0.02 0.03 0.04 0.05 0.07 0.08 0.08 0.07 0.06 0.05 0.04 0.04 0.04 0.04 0.02 0.02 0.01 0.01 0.02 0.02 0.02 0.01 0.01 0.01 0.02 0.04 0.05
0.02 0.03 0.05 0.05 0.06 0.06 0.07 0.07 0.07 0.07 0.05 0.03 0.03 0.02 0.02 0.02 0.03 0.03 0.04 0.04 0.05 0.07 0.08 0.08 0.09 0.08 0.06 0.05 0.05 0.05 0.04 0.03 0.02 0.03 0.02 0.02 0.02 0.01 0.01 0.02 0.04 0.06 0.05
0.01 0.02 0.03 0.05 0.06 0.07 0.08 0.08 0.08 0.08 0.06 0.04 0.04 0.04 0.03 0.03 0.03 0.03 0.04 0.04 0.04 0.05 0.05 0.06 0.09 0.10 0.08 0.05 0.05 0.04 0.03 0.03 0.02 0.02 0.02 0.02 0.01 0.01 0.02 0.03 0.07 0.09 0.06
0.01 0.02 0.03 0.04 0.05 0.06 0.06 0.07 0.07 0.07 0.07 0.04 0.02 0.03 0.04 0.04 0.04 0.04 0.03 0.03 0.04 0.04 0.03 0.04 0.06 0.10 0.12 0.09 0.06 0.04 0.03 0.03 0.03 0.03 0.02 0.02 0.02 0.01 0.02 0.03 0.07 0.06 0.02
0.01 0.01 0.02 0.03 0.05 0.06 0.06 0.05 0.06 0.09 0.09 0.09 0.06 0.05 0.04 0.04 0.05 0.06 0.05 0.04 0.04 0.04 0.04 0.03 0.03 0.04 0.08 0.11 0.10 0.08 0.06 0.05 0.04 0.04 0.03 0.02 0.01 0.01 0.01 0.02 0.03 0.04 0.03
0.00 0.01 0.02 0.02 0.04 0.05 0.07 0.07 0.06 0.09 0.11 0.11 0.09 0.06 0.04 0.04 0.04 0.05 0.05 0.05 0.05 0.04 0.04 0.03 0.03 0.03 0.03 0.05 0.07 0.08 0.08 0.06 0.04 0.03 0.03 0.03 0.02 0.02 0.02 0.01 0.02 0.03 0.03
0.00 0.01 0.01 0.02 0.03 0.05 0.07 0.08 0.06 0.06 0.09 0.10 0.08 0.06 0.04 0.03 0.03 0.04 0.04 0.04 0.05 0.04 0.03 0.03 0.03 0.03 0.03 0.03 0.04 0.05 0.05 0.06 0.05 0.04 0.03 0.03 0.03 0.03 0.03 0.02 0.02 0.03 0.03
0.01 0.01 0.01 0.02 0.03 0.05 0.07 0.08 0.07 0.05 0.07 0.09 0.12 0.11 0.07 0.05 0.04 0.04 0.04 0.04 0.04 0.04 0.03 0.02 0.02 0.02 0.02 0.02 0.02 0.03 0.03 0.03 0.04 0.04 0.04 0.04 0.04 0.04 0.04 0.03 0.03 0.03 0.02
0.01 0.01 0.01 0.02 0.02 0.04 0.06 0.08 0.08 0.05 0.05 0.07 0.10 0.12 0.12 0.09 0.06 0.06 0.05 0.04 0.04 0.04 0.02 0.01 0.01 0.01 0.01 0.01 0.01 0.02 0.02 0.03 0.02 0.02 0.02 0.03 0.04 0.04 0.03 0.03 0.03 0.02 0.02
MSLP
1021.83 1021.18 1020.54 1020.03 1019.67 1019.47 1019.38 1019.32 1019.24 1019.09 1018.86 1018.56 1018.24 1017.95 1017.73 1017.60 1017.55 1017.56 1017.59 1017.60 1017.58 1017.53 1017.45 1017.36 1017.28 1017.21 1017.16 1017.11 1017.05 1016.98 1016.89 1016.80 1016.73 1016.70 1016.72 1016.80 1016.92 1017.07 1017.23 1017.37 1017.48 1017.57 1017.64
1022.14 1021.52 1020.92 1020.43 1020.09 1019.88 1019.77 1019.69 1019.57 1019.39 1019.14 1018.83 1018.53 1018.26 1018.06 1017.95 1017.90 1017.90 1017.91 1017.90 1017.85 1017.77 1017.66 1017.56 1017.47 1017.40 1017.35 1017.30 1017.24 1017.16 1017.07 1016.98 1016.91 1016.88 1016.90 1016.98 1017.10 1017.25 1017.40 1017.54 1017.65 1017.74 1017.82
1022.39 1021.83 1021.28 1020.83 1020.52 1020.33 1020.21 1020.11 1019.97 1019.78 1019.51 1019.21 1018.92 1018.66 1018.48 1018.37 1018.31 1018.28 1018.24 1018.17 1018.06 1017.93 1017.79 1017.66 1017.55 1017.48 1017.43 1017.39 1017.35 1017.29 1017.21 1017.14 1017.09 1017.08 1017.11 1017.19 1017.31 1017.44 1017.57 1017.69 1017.79 1017.88 1017.96
1022.57 1022.08 1021.61 1021.23 1020.97 1020.81 1020.70 1020.59 1020.45 1020.24 1019.97 1019.67 1019.38 1019.14 1018.95 1018.82 1018.73 1018.65 1018.55 1018.41 1018.23 1018.03 1017.84 1017.68 1017.55 1017.48 1017.44 1017.41 1017.39 1017.37 1017.33 1017.29 1017.27 1017.28 1017.33 1017.41 1017.51 1017.62 1017.72 1017.81 1017.89 1017.97 1018.07
1022.71 1022.29 1021.91 1021.62 1021.42 1021.31 1021.22 1021.12 1020.96 1020.73 1020.46 1020.16 1019.88 1019.63 1019.44 1019.29 1019.16 1019.02 1018.84 1018.63 1018.38 1018.12 1017.88 1017.68 1017.53 1017.45 1017.41 1017.41 1017.41 1017.42 1017.42 1017.43 1017.44 1017.48 1017.53 1017.61 1017.69 1017.77 1017.84 1017.90 1017.96 1018.03 1018.13
1022.84 1022.50 1022.21 1022.01 1021.88 1021.81 1021.75 1021.64 1021.47 1021.24 1020.95 1020.64 1020.35 1020.11 1019.90 1019.73 1019.57 1019.38 1019.15 1018.88 1018.57 1018.26 1017.97 1017.73 1017.56 1017.45 1017.41 1017.41 1017.43 1017.46 1017.50 1017.54 1017.58 1017.64 1017.71 1017.78 1017.84 1017.89 1017.93 1017.96 1017.99 1018.06 1018.17
1023.03 1022.75 1022.54 1022.41 1022.35 1022.32 1022.26 1022.15 1021.96 1021.70 1021.39 1021.08 1020.79 1020.54 1020.34 1020.16 1019.97 1019.76 1019.49 1019.18 1018.83 1018.48 1018.16 1017.88 1017.68 1017.55 1017.48 1017.46 1017.47 1017.51 1017.55 1017.61 1017.68 1017.76 1017.83 1017.89 1017.94 1017.97 1017.98 1017.99 1018.01 1018.08 1018.20
1023.35 1023.11 1022.95 1022.87 1022.85 1022.83 1022.76 1022.62 1022.40 1022.11 1021.78 1021.46 1021.17 1020.93 1020.74 1020.56 1020.38 1020.16 1019.89 1019.56 1019.20 1018.83 1018.48 1018.17 1017.93 1017.75 1017.64 1017.57 1017.55 1017.55 1017.59 1017.64 1017.71 1017.79 1017.87 1017.94 1017.98 1018.00 1018.00 1018.00 1018.03 1018.10 1018.24
1023.88 1023.63 1023.48 1023.42 1023.40 1023.36 1023.25 1023.07 1022.80 1022.47 1022.12 1021.79 1021.51 1021.29 1021.12 1020.97 1020.80 1020.59 1020.33 1020.01 1019.65 1019.27 1018.91 1018.57 1018.29 1018.05 1017.87 1017.73 1017.64 1017.59 1017.58 1017.61 1017.66 1017.74 1017.83 1017.90 1017.95 1017.97 1017.98 1018.00 1018.04 1018.13 1018.28
1024.62 1024.34 1024.18 1024.09 1024.03 1023.93 1023.77 1023.51 1023.19 1022.82 1022.45 1022.12 1021.85 1021.65 1021.50 1021.37 1021.22 1021.03 1020.78 1020.48 1020.13 1019.76 1019.38 1019.03 1018.70 1018.40 1018.14 1017.92 1017.74 1017.61 1017.53 1017.51 1017.53 1017.60 1017.69 1017.77 1017.84 1017.88 1017.92 1017.96 1018.02 1018.14 1018.32
1025.55 1025.23 1025.03 1024.89 1024.75 1024.57 1024.32 1023.98 1023.60 1023.19 1022.80 1022.47 1022.21 1022.02 1021.88 1021.76 1021.62 1021.44 1021.20 1020.91 1020.57 1020.21 1019.84 1019.46 1019.10 1018.74 1018.41 1018.09 1017.82 1017.60 1017.44 1017.35 1017.34 1017.38 1017.46 1017.55 1017.64 1017.72 1017.79 1017.86 1017.96 1018.11 1018.31
1026.61 1026.26 1026.00 1025.79 1025.56 1025.28 1024.92 1024.51 1024.05 1023.60 1023.19 1022.86 1022.61 1022.42 1022.28 1022.14 1021.99 1021.79 1021.55 1021.25 1020.92 1020.57 1020.20 1019.82 1019.43 1019.04 1018.64 1018.25 1017.88 1017.57 1017.33 1017.17 1017.10 1017.11 1017.17 1017.27 1017.37 1017.48 1017.58 1017.69 1017.83 1018.01 1018.23
1027.73 1027.37 1027.06 1026.76 1026.44 1026.05 1025.59 1025.09 1024.57 1024.09 1023.66 1023.32 1023.05 1022.85 1022.68 1022.50 1022.30 1022.06 1021.78 1021.47 1021.13 1020.79 1020.43 1020.06 1019.67 1019.25 1018.81 1018.37 1017.93 1017.54 1017.22 1016.99 1016.86 1016.82 1016.86 1016.94 1017.05 1017.17 1017.30 1017.44 1017.61 1017.81 1018.05
1028.83 1028.47 1028.13 1027.76 1027.34 1026.85 1026.31 1025.73 1025.16 1024.65 1024.21 1023.85 1023.56 1023.32 1023.09 1022.84 1022.56 1022.25 1021.91 1021.56 1021.21 1020.87 1020.53 1020.18 1019.80 1019.39 1018.94 1018.46 1017.98 1017.53 1017.15 1016.85 1016.65 1016.56 1016.55 1016.60 1016.70 1016.82 1016.96 1017.12 1017.31 1017.53 1017.78
1029.84 1029.51 1029.15 1028.74 1028.24 1027.67 1027.05 1026.42 1025.81 1025.28 1024.82 1024.45 1024.12 1023.82 1023.51 1023.17 1022.79 1022.38 1021.96 1021.56 1021.18 1020.83 1020.51 1020.19 1019.85 1019.46 1019.02 1018.54 1018.04 1017.55 1017.11 1016.75 1016.49 1016.33 1016.27 1016.28 1016.35 1016.45 1016.59 1016.75 1016.95 1017.18 1017.44
1030.75 1030.45 1030.10 1029.65 1029.10 1028.47 1027.80 1027.13 1026.52 1025.97 1025.50 1025.10 1024.74 1024.37 1023.96 1023.51 1023.01 1022.50 1021.99 1021.52 1021.10 1020.75 1020.44 1020.15 1019.84 1019.49 1019.07 1018.60 1018.09 1017.58 1017.11 1016.70 1016.38 1016.17 1016.04 1016.00 1016.02 1016.10 1016.22 1016.38 1016.58 1016.82 1017.08
1031.54 1031.29 1030.94 1030.47 1029.89 1029.23 1028.53 1027.86 1027.24 1026.70 1026.24 1025.81 1025.40 1024.96 1024.46 1023.89 1023.28 1022.65 1022.05 1021.51 1021.05 1020.68 1020.37 1020.09 1019.80 1019.47 1019.08 1018.63 1018.13 1017.61 1017.12 1016.68 1016.31 1016.05 1015.87 1015.77 1015.75 1015.79 1015.89 1016.04 1016.24 1016.48 1016.74
1032.26 1032.03 1031.68 1031.19 1030.59 1029.92 1029.23 1028.57 1027.97 1027.45 1026.99 1026.55 1026.09 1025.58 1025.00 1024.33 1023.62 1022.89 1022.20 1021.59 1021.08 1020.67 1020.33 1020.05 1019.76 1019.43 1019.05 1018.61 1018.11 1017.60 1017.10 1016.64 1016.25 1015.95 1015.73 1015.60 1015.54 1015.55 1015.63 1015.77 1015.97 1016.21 1016.47
1032.90 1032.68 1032.32 1031.82 1031.22 1030.55 1029.89 1029.26 1028.69 1028.20 1027.74 1027.29 1026.80 1026.23 1025.57 1024.82 1024.02 1023.22 1022.45 1021.77 1021.20 1020.74 1020.36 1020.03 1019.71 1019.36 1018.96 1018.51 1018.02 1017.51 1017.02 1016.57 1016.18 1015.86 1015.62 1015.46 1015.38 1015.37 1015.43 1015.56 1015.76 1016.00 1016.27
1033.48 1033.23 1032.85 1032.35 1031.75 1031.11 1030.48 1029.89 1029.37 1028.90 1028.46 1028.00 1027.48 1026.86 1026.15 1025.34 1024.48 1023.62 1022.80 1022.06 1021.43 1020.89 1020.45 1020.04 1019.65 1019.24 1018.81 1018.33 1017.83 1017.34 1016.86 1016.43 1016.06 1015.76 1015.52 1015.36 1015.26 1015.24 1015.29 1015.42 1015.62 1015.87 1016.14
1033.98 1033.70 1033.29 1032.78 1032.20 1031.59 1031.00 1030.46 1029.98 1029.54 1029.10 1028.63 1028.09 1027.44 1026.69 1025.85 1024.96 1024.06 1023.20 1022.42 1021.72 1021.11 1020.57 1020.07 1019.59 1019.09 1018.59 1018.07 1017.56 1017.08 1016.63 1016.24 1015.91 1015.63 1015.42 1015.27 1015.18 1015.15 1015.20 1015.33 1015.52 1015.77 1016.05
1034.39 1034.07 1033.64 1033.12 1032.56 1031.99 1031.44 1030.95 1030.50 1030.08 1029.65 1029.17 1028.60 1027.93 1027.16 1026.30 1025.40 1024.49 1023.62 1022.80 1022.05 1021.36 1020.72 1020.11 1019.51 1018.92 1018.33 1017.77 1017.24 1016.76 1016.35 1016.01 1015.73 1015.50 1015.33 1015.20 1015.11 1015.09 1015.13 1015.25 1015.44 1015.69 1015.96
1034.69 1034.33 1033.89 1033.38 1032.84 1032.31 1031.81 1031.35 1030.93 1030.51 1030.07 1029.57 1028.98 1028.29 1027.51 1026.66 1025.77 1024.87 1024.00 1023.16 1022.37 1021.61 1020.88 1020.15 1019.44 1018.74 1018.07 1017.45 1016.90 1016.44 1016.06 1015.77 1015.54 1015.37 1015.24 1015.13 1015.06 1015.04 1015.07 1015.17 1015.35 1015.59 1015.86
1034.89 1034.51 1034.06 1033.57 1033.05 1032.56 1032.09 1031.66 1031.25 1030.83 1030.37 1029.85 1029.23 1028.53 1027.74 1026.90 1026.04 1025.17 1024.31 1023.47 1022.65 1021.84 1021.03 1020.21 1019.38 1018.59 1017.84 1017.17 1016.59 1016.13 1015.79 1015.54 1015.37 1015.25 1015.15 1015.07 1015.01 1014.98 1015.00 1015.09 1015.25 1015.47 1015.73
1035.00 1034.63 1034.19 1033.71 1033.23 1032.77 1032.33 1031.91 1031.50 1031.06 1030.57 1030.01 1029.37 1028.64 1027.86 1027.04 1026.21 1025.37 1024.54 1023.72 1022.89 1022.04 1021.16 1020.26 1019.35 1018.47 1017.65 1016.93 1016.33 1015.87 1015.55 1015.33 1015.20 1015.12 1015.06 1015.01 1014.96 1014.93 1014.93 1015.00 1015.13 1015.34 1015.59
1035.09 1034.72 1034.29 1033.84 1033.39 1032.95 1032.53 1032.11 1031.68 1031.22 1030.69 1030.09 1029.42 1028.68 1027.90 1027.10 1026.30 1025.50 1024.70 1023.90 1023.07 1022.19 1021.27 1020.30 1019.33 1018.38 1017.49 1016.73 1016.10 1015.63 1015.32 1015.13 1015.02 1014.97 1014.94 1014.91 1014.87 1014.85 1014.85 1014.91 1015.03 1015.22 1015.46
Thickness
5707 5710 5711 5711 5711 5711 5711 5711 5711 5712 5712 5712 5713 5713 5713 5713 5714 5714 5714 5715 5715 5716 5716 5716 5717 5717 5717 5717 5717 5718 5718 5717 5718 5718 5717 5717 5717 5717 5716 5716 5716 5716 5715
5707 5708 5708 5707 5707 5707 5707 5707 5707 5708 5708 5708 5709 5709 5710 5710 5710 5711 5711 5711 5712 5713 5713 5713 5714 5714 5714 5714 5714 5714 5714 5714 5714 5714 5714 5714 5714 5714 5713 5713 5713 5713 5713
5704 5704 5704 5704 5703 5703 5703 5703 5703 5704 5704 5705 5705 5706 5706 5706 5707 5707 5708 5708 5709 5710 5710 5710 5710 5710 5710 5710 5711 5711 5711 5710 5710 5710 5710 5710 5711 5710 5710 5710 5710 5710 5709
5701 5700 5700 5699 5699 5699 5698 5698 5699 5699 5700 5700 5701 5702 5702 5702 5703 5703 5704 5704 5705 5706 5706 5706 5706 5706 5707 5707 5707 5707 5707 5707 5707 5707 5707 5707 5707 5707 5707 5707 5706 5706 5706
5696 5695 5695 5695 5695 5694 5694 5694 5694 5694 5695 5696 5696 5697 5698 5698 5698 5699 5699 5700 5701 5701 5702 5702 5703 5703 5703 5704 5704 5704 5704 5703 5703 5703 5703 5703 5703 5704 5703 5703 5703 5702 5702
5691 5690 5690 5690 5689 5689 5689 5689 5689 5690 5690 5691 5691 5692 5693 5693 5694 5694 5695 5695 5696 5697 5698 5698 5699 5699 5699 5700 5700 5700 5700 5699 5699 5699 5699 5699 5700 5700 5699 5699 5698 5698 5698
5685 5685 5684 5684 5684 5684 5684 5684 5684 5685 5685 5685 5686 5686 5687 5688 5689 5689 5690 5691 5691 5692 5693 5693 5694 5694 5695 5695 5696 5696 5696 5695 5695 5695 5695 5695 5696 5696 5695 5695 5694 5694 5694
5680 5679 5679 5679 5678 5678 5679 5679 5679 5679 5680 5680 5681 5681 5682 5682 5683 5684 5685 5686 5687 5688 5688 5689 5689 5690 5690 5691 5691 5691 5691 5691 5690 5690 5691 5691 5691 5692 5691 5691 5690 5690 5690
5674 5673 5673 5673 5673 5673 5673 5673 5673 5673 5674 5674 5675 5675 5676 5676 5677 5678 5679 5680 5681 5682 5683 5683 5684 5685 5685 5685 5686 5686 5686 5686 5686 5686 5686 5686 5687 5687 5687 5686 5686 5685 5685
5666 5666 5666 5666 5666 5667 5666 5666 5667 5667 5668 5668 5668 5669 5669 5670 5671 5672 5673 5674 5675 5676 5677 5677 5678 5679 5680 5680 5680 5680 5681 5681 5681 5681 5681 5682 5682 5682 5682 5682 5681 5681 5681
5657 5658 5658 5659 5659 5659 5659 5659 5660 5660 5661 5661 5662 5662 5663 5663 5664 5665 5667 5668 5669 5670 5671 5671 5672 5673 5673 5673 5674 5675 5675 5675 5675 5676 5676 5676 5677 5677 5677 5677 5676 5676 5676
5648 5649 5650 5651 5651 5651 5652 5652 5652 5653 5653 5654 5655 5655 5656 5656 5657 5659 5660 5661 5662 5663 5664 5665 5665 5666 5667 5667 5668 5668 5668 5669 5669 5669 5670 5671 5672 5672 5672 5672 5671 5671 5671
5640 5641 5642 5643 5643 5644 5644 5645 5645 5646 5646 5647 5648 5649 5649 5650 5650 5652 5653 5654 5655 5656 5657 5658 5659 5659 5660 5660 5661 5661 5662 5663 5663 5663 5664 5665 5666 5666 5666 5666 5666 5666 5665
5631 5632 5633 5634 5635 5635 5636 5637 5637 5638 5638 5639 5640 5641 5642 5642 5643 5644 5646 5647 5649 5650 5650 5651 5652 5653 5653 5654 5654 5655 5655 5656 5657 5658 5658 5659 5660 5660 5661 5661 5661 5660 5660
5622 5624 5625 5626 5626 5627 5628 5628 5629 5630 5631 5632 5633 5634 5635 5635 5636 5637 5638 5640 5642 5643 5644 5644 5645 5646 5646 5647 5647 5648 5648 5649 5650 5651 5652 5653 5654 5654 5655 5655 5655 5655 5654
5612 5614 5616 5617 5618 5618 5619 5619 5620 5621 5622 5623 5625 5626 5627 5628 5629 5629 5631 5633 5634 5636 5637 5638 5638 5639 5639 5640 5640 5641 5642 5643 5644 5645 5646 5647 5647 5648 5648 5649 5649 5649 5648
5603 5605 5607 5608 5609 5610 5610 5611 5611 5612 5613 5615 5616 5618 5619 5621 5621 5622 5624 5625 5627 5629 5630 5631 5631 5632 5632 5632 5633 5634 5635 5636 5637 5638 5639 5640 5641 5641 5642 5643 5643 5643 5642
5593 5595 5597 5598 5599 5600 5601 5602 5603 5604 5605 5606 5607 5609 5611 5612 5613 5614 5616 5618 5620 5621 5623 5623 5624 5624 5624 5624 5625 5626 5628 5629 5630 5631 5633 5634 5634 5635 5635 5636 5637 5637 5636
5581 5584 5586 5588 5589 5590 5591 5592 5593 5594 5595 5597 5598 5600 5602 5603 5604 5606 5608 5610 5612 5614 5615 5616 5616 5616 5616 5617 5617 5618 5620 5621 5623 5624 5625 5626 5627 5628 5629 5629 5629 5630 5629
5568 5572 5574 5577 5578 5579 5581 5582 5583 5584 5586 5587 5589 5591 5593 5594 5595 5597 5600 5602 5604 5606 5607 5608 5608 5608 5608 5609 5609 5609 5610 5612 5615 5617 5618 5619 5620 5621 5622 5622 5622 5622 5622
5554 5557 5560 5562 5566 5567 5569 5570 5572 5573 5575 5577 5580 5582 5583 5585 5586 5588 5590 5593 5595 5597 5599 5600 5601 5600 5599 5600 5600 5599 5601 5603 5605 5608 5610 5612 5612 5613 5614 5615 5615 5615 5615
5538 5542 5546 5548 5552 5555 5558 5560 5562 5563 5566 5568 5570 5572 5574 5575 5576 5578 5581 5584 5586 5589 5590 5592 5592 5591 5591 5592 5592 5590 5590 5592 5596 5599 5601 5603 5604 5605 5605 5606 5607 5607 5607
5521 5526 5531 5534 5538 5542 5545 5548 5551 5552 5554 5556 5558 5561 5563 5565 5567 5569 5572 5575 5577 5580 5582 5583 5585 5585 5583 5584 5585 5584 5583 5584 5585 5588 5591 5593 5595 5596 5597 5598 5599 5599 5600
5504 5510 5515 5519 5523 5527 5531 5534 5537 5540 5541 5545 5548 5550 5552 5554 5556 5559 5562 5565 5567 5570 5573 5574 5576 5577 5576 5575 5575 5577 5578 5580 5579 5579 5581 5583 5585 5587 5588 5590 5591 5591 5592
5488 5494 5499 5504 5508 5512 5516 5520 5523 5526 5530 5532 5536 5538 5540 5543 5546 5548 5551 5555 5557 5561 5563 5565 5567 5568 5568 5568 5568 5568 5569 5570 5572 5572 5572 5573 5575 5578 5579 5581 5582 5583 5584
5473 5478 5484 5489 5493 5498 5501 5506 5509 5512 5516 5519 5522 5525 5528 5531 5534 5537 5540 5544 5547 5550 5553 5556 5557 5558 5559 5560 5561 5561 5562 5563 5564 5564 5565 5565 5566 5568 5571 5572 5574 5575 5576